Location: Unspecified
(41.5000°N, 0.0000°E)
Time: 10:30:03
(UTC+00:00)

Vanguard 1 - Pass Details

Date: 27 June 2019
Orbit: 655 x 3829 km, 34.2° (Epoch: 16 August)

Event Time Altitude Azimuth Distance (km) Brightness Sun altitude
Exits shadow 00:31:27 28° 206° (SSW) 5,329 13.2 -24.8°
Maximum altitude 00:43:01 47° 155° (SSE) 3,903 12.6 -24.5°
Drops below altitude 10° 00:57:13 10° 88° (E) 4,878 13.8 -24.0°
Sets 01:00:27 0° 83° (E) 5,523 14.2 -23.8°
